Regional Weather Roundup
Issued by NWS

Home | Current Version | Previous Version | Text Only | Print | Product List | Glossary On
Versions: 1 2 3 4 5 6 7 8 9 10 11 12 13 14 15 16 17 18 19 20 21 22 23 24 25 26 27 28 29 30 31 32 33 34 35 36 37 38 39 40 41 42 43 44 45 46 47 48 49 50
000
ASUS43 KDTX 251610
RWRMI
MICHIGAN HOURLY REGIONAL WEATHER ROUNDUP
NATIONAL WEATHER SERVICE DETROIT/PONTIAC MI
1200 PM EDT SAT OCT 25 2014

NOTE: "FAIR" INDICATES FEW OR NO CLOUDS BELOW 12,000 FEET WITH NO
SIGNIFICANT WEATHER AND/OR OBSTRUCTION TO VISIBILITY.

MIZ047>049-052>055-059>063-066>070-074>076-081>083-251700-
SOUTHEAST LOWER MICHIGAN

CITY           SKY/WX    TMP DP  RH WIND       PRES   REMARKS
ADRIAN         PTSUNNY   60  52  74 NW15G21   29.85S
ALMA           MOSUNNY   61  51  68 W14G24    29.79F
ANN ARBOR      CLOUDY    60  51  72 W16       29.82S
BAD AXE        PTSUNNY   58  53  83 W17G28    29.72F
DETROIT CITY   CLOUDY    61  52  72 W14G23    29.80F
DETROIT        CLOUDY    60  52  74 W18G28    29.81F
FLINT          CLOUDY    60  51  72 W15G25    29.79F
GROSSE ILE     CLOUDY    61  54  77 W12       29.80S
HILLSDALE      CLOUDY    59  55  88 W12G18    29.86S FOG
HOWELL         CLOUDY    56  52  86 W15       29.82S FOG

CITY           SKY/WX    TMP DP  RH WIND       PRES   REMARKS
JACKSON        CLOUDY    58  52  80 W13G25    29.84F
LAMBERTVILLE   CLOUDY    59  52  77 W12G22    29.85S
LANSING        PTSUNNY   58  52  80 W15       29.83F HAZE
LAPEER         NOT AVBL
MASON          CLOUDY    56  52  87 W14G23    29.84R FOG
MONROE         CLOUDY    61  54  77 W18       29.81S HAZE
MT. CLEMENS    CLOUDY    59  53  80 W15G24    29.76S
PONTIAC        CLOUDY    57  50  77 W15G26    29.79S
PORT HOPE        N/A     59  50  72 W10G24    29.69S
PORT HURON     CLOUDY    57  52  82 W10G22    29.77S
TRI CITIES     LGT RAIN  63  50  62 W16G23    29.76F
YPSILANTI      CLOUDY    63  51  65 W14G24    29.82F
$$
MIZ043>046-050>051-056>058-064>065-071>073-077>080-251700-
SOUTHWEST LOWER MICHIGAN

CITY           SKY/WX    TMP DP  RH WIND       PRES   REMARKS
BATTLE CREEK   CLOUDY    59  52  77 W14G20    29.88F
BENTON HARBOR  MOSUNNY   60  54  80 W15       29.91S HAZE
BIG RAPIDS     SUNNY     61  50  67 W17G28    29.79S
COLDWATER      CLOUDY    59  55  86 W9        29.88S FOG
HOLLAND        MOSUNNY   61  53  75 NW14G22   29.89R
GRAND RAPIDS   PTSUNNY   62  51  67 W15       29.85S
KALAMAZOO      CLOUDY    60  53  77 W12       29.88F
MARSHALL       CLOUDY    59  53  80 W10G20    29.86S
MUSKEGON       SUNNY     62  50  64 W14G22    29.86S
$$
MIZ016>042-251700-
NORTHERN LOWER MICHIGAN

CITY           SKY/WX    TMP DP  RH WIND       PRES   REMARKS
ALPENA         SUNNY     62  41  46 W16G28    29.64F
BEAVER ISLAND  SUNNY     58  43  56 W17G24    29.70S
BELLAIRE       SUNNY     60  43  53 W10G16    29.74S
CADILLAC       SUNNY     60  43  54 W22G32    29.77S
CHARLEVOIX     SUNNY     58  47  67 W18G24    29.74S
FRANKFORT      SUNNY     59  47  65 W14G20    29.78F
GAYLORD        SUNNY     57  39  51 W20G29    29.70F
GRAYLING       SUNNY     60  40  46 W15G29    29.72F
HARBOR SPRINGS SUNNY     59  46  60 W12G23    29.69F
HOUGHTON LAKE  SUNNY     60  42  51 W16G23    29.74F
MANISTEE       SUNNY     57  46  67 W18G24    29.82R
OSCODA         SUNNY     63  46  53 W15G21    29.67F
PELLSTON       SUNNY     59  39  47 W17G32    29.68S
TRAVERSE CITY  MOSUNNY   61  36  39 W23G32    29.74F
$$
MIZ007>008-015-251700-
EASTERN UPPER MICHIGAN

CITY           SKY/WX    TMP DP  RH WIND       PRES   REMARKS
KINROSS        CLOUDY    55  37  50 NW24G31   29.62F
MACKINAC ISLAN SUNNY     56  43  60 W20G26    29.66S
NEWBERRY       MOSUNNY   55  39  53 W16G29    29.66S
S. S. MARIE    MOSUNNY   56  38  50 NW23G35   29.61S
$$
MIZ004>006-011>014-085-251700-
CENTRAL UPPER MICHIGAN

CITY           SKY/WX    TMP DP  RH WIND       PRES   REMARKS
MANISTIQUE     SUNNY     58  38  47 NW18G26   29.69S
ESCANABA       SUNNY     57  34  41 NW21G29   29.71S
MENOMINEE      SUNNY     59  34  38 NW13G24   29.77F
SAWYER-GWINN   SUNNY     54  34  47 NW22G32   29.71S
$$
MIZ001>003-009>011-084-251700-
WESTERN UPPER MICHIGAN

CITY           SKY/WX    TMP DP  RH WIND       PRES   REMARKS
IRON MOUNTAIN  SUNNY     57  32  38 W20G33    29.76R
HOUGHTON       SUNNY     51  36  56 W33G44    29.72F
COPPER HARBOR    N/A     53  36  52 N16G29    29.67S
IRONWOOD       SUNNY     52  32  46 W25G33    29.84S
$$

ABBREVIATIONS USED IN REMARKS
   TC - TEMPERATURE IN CELSIUS
  WCI - WIND CHILL INDEX
   HX - HEAT INDEX
  VSB - VISIBILITY




USA.gov is the U.S. government's official web portal to all federal, state and local government web resources and services.